Time,TemperatureF,DewpointF,PressureIn,WindDirection,WindDirectionDegrees,WindSpeedMPH,WindSpeedGustMPH,Humidity,HourlyPrecipIn,Conditions,Clouds,dailyrainin,SoftwareType,DateUTC
2013-02-19 00:00:00,20.8,5.0,30.14,SSW,193,2.0,4.0,50,0.00,,,0.00,WUHU216DAVISVP2,2013-02-19 05:00:00,
2013-02-19 00:01:00,20.8,5.0,30.13,SSW,193,3.0,4.0,50,0.00,,,0.00,WUHU216DAVISVP2,2013-02-19 05:01:00,
2013-02-19 00:06:00,20.8,5.0,30.14,SSW,193,1.3,4.0,50,0.00,,,0.00,WUHU216DAVISVP2,2013-02-19 05:06:00,
2013-02-19 00:11:00,20.8,5.5,30.14,SSW,193,1.8,4.0,51,0.00,,,0.00,WUHU216DAVISVP2,2013-02-19 05:11:00,
2013-02-19 00:16:00,20.8,5.5,30.14,SSW,193,2.4,4.0,51,0.00,,,0.00,WUHU216DAVISVP2,2013-02-19 05:16:00,
2013-02-19 00:21:00,20.8,5.5,30.14,SSW,192,1.0,4.0,51,0.00,,,0.00,WUHU216DAVISVP2,2013-02-19 05:21:00,
2013-02-19 00:26:00,20.8,5.0,30.15,SSW,192,0.0,4.0,50,0.00,,,0.00,WUHU216DAVISVP2,2013-02-19 05:26:00,
2013-02-19 00:31:00,20.9,5.1,30.15,SSW,192,2.3,5.0,50,0.00,,,0.00,WUHU216DAVISVP2,2013-02-19 05:31:00,
2013-02-19 00:36:00,21.1,5.8,30.15,SSW,192,0.0,5.0,51,0.00,,,0.00,WUHU216DAVISVP2,2013-02-19 05:36:00,
2013-02-19 00:41:00,20.9,5.5,30.15,SSW,192,1.0,5.0,51,0.00,,,0.00,WUHU216DAVISVP2,2013-02-19 05:41:00,
2013-02-19 00:46:00,20.9,5.1,30.15,SSW,192,1.8,5.0,50,0.00,,,0.00,WUHU216DAVISVP2,2013-02-19 05:46:00,
2013-02-19 00:51:00,20.8,5.5,30.14,SSW,192,0.0,5.0,51,0.00,,,0.00,WUHU216DAVISVP2,2013-02-19 05:51:00,
2013-02-19 00:56:00,20.6,5.3,30.15,SSW,192,1.5,5.0,51,0.00,,,0.00,WUHU216DAVISVP2,2013-02-19 05:56:00,
2013-02-19 01:01:00,20.4,5.5,30.15,SSW,192,1.0,5.0,52,0.00,,,0.00,WUHU216DAVISVP2,2013-02-19 06:01:00,
2013-02-19 01:06:00,20.3,5.0,30.15,SSW,192,0.0,2.0,51,0.00,,,0.00,WUHU216DAVISVP2,2013-02-19 06:06:00,
2013-02-19 01:12:00,20.2,5.3,30.15,SSW,192,0.0,2.0,52,0.00,,,0.00,WUHU216DAVISVP2,2013-02-19 06:12:00,
2013-02-19 01:17:00,20.2,5.8,30.15,SSW,192,0.0,1.0,53,0.00,,,0.00,WUHU216DAVISVP2,2013-02-19 06:17:00,
2013-02-19 01:22:00,20.1,5.7,30.15,SSW,192,1.0,1.0,53,0.00,,,0.00,WUHU216DAVISVP2,2013-02-19 06:22:00,
2013-02-19 01:27:00,20.0,6.0,30.15,SSW,192,0.0,1.0,54,0.00,,,0.00,WUHU216DAVISVP2,2013-02-19 06:27:00,
2013-02-19 01:33:00,19.8,5.8,30.16,SSW,192,0.0,1.0,54,0.00,,,0.00,WUHU216DAVISVP2,2013-02-19 06:33:00,
2013-02-19 01:38:00,19.8,5.8,30.16,SSW,192,0.0,1.0,54,0.00,,,0.00,WUHU216DAVISVP2,2013-02-19 06:38:00,
2013-02-19 01:43:00,19.7,5.3,30.16,SSW,192,1.0,2.0,53,0.00,,,0.00,WUHU216DAVISVP2,2013-02-19 06:43:00,
2013-02-19 01:48:00,19.9,5.5,30.16,SSW,192,1.0,2.0,53,0.00,,,0.00,WUHU216DAVISVP2,2013-02-19 06:48:00,
2013-02-19 01:53:00,20.1,5.7,30.16,SSW,192,0.0,2.0,53,0.00,,,0.00,WUHU216DAVISVP2,2013-02-19 06:53:00,
2013-02-19 01:58:00,20.2,5.8,30.16,SSW,192,0.0,2.0,53,0.00,,,0.00,WUHU216DAVISVP2,2013-02-19 06:58:00,
2013-02-19 02:03:00,20.2,6.2,30.16,SSW,192,0.0,2.0,54,0.00,,,0.00,WUHU216DAVISVP2,2013-02-19 07:03:00,
2013-02-19 02:08:00,20.2,5.8,30.16,SSW,192,0.0,2.0,53,0.00,,,0.00,WUHU216DAVISVP2,2013-02-19 07:08:00,
2013-02-19 02:13:00,20.2,6.2,30.16,SSW,192,0.0,2.0,54,0.00,,,0.00,WUHU216DAVISVP2,2013-02-19 07:13:00,
2013-02-19 02:18:00,20.3,5.9,30.16,SSW,192,0.0,2.0,53,0.00,,,0.00,WUHU216DAVISVP2,2013-02-19 07:18:00,
2013-02-19 02:23:00,20.4,7.2,30.16,SSW,192,0.0,1.0,56,0.00,,,0.00,WUHU216DAVISVP2,2013-02-19 07:23:00,
2013-02-19 02:28:00,20.3,6.7,30.16,SSW,192,0.0,1.0,55,0.00,,,0.00,WUHU216DAVISVP2,2013-02-19 07:28:00,
2013-02-19 02:33:00,20.2,7.0,30.16,SSW,192,0.0,0.0,56,0.00,,,0.00,WUHU216DAVISVP2,2013-02-19 07:33:00,
2013-02-19 02:38:00,19.9,7.5,30.16,SSW,192,0.0,0.0,58,0.00,,,0.00,WUHU216DAVISVP2,2013-02-19 07:38:00,
2013-02-19 02:43:00,19.5,6.7,30.15,SSW,192,0.0,0.0,57,0.00,,,0.00,WUHU216DAVISVP2,2013-02-19 07:43:00,
2013-02-19 02:48:00,19.2,6.9,30.15,SSW,192,0.0,0.0,58,0.00,,,0.00,WUHU216DAVISVP2,2013-02-19 07:48:00,
2013-02-19 02:53:00,19.2,6.1,30.15,SSW,192,0.0,0.0,56,0.00,,,0.00,WUHU216DAVISVP2,2013-02-19 07:53:00,
2013-02-19 03:00:00,19.1,7.9,30.16,SSW,192,0.0,0.0,61,0.00,,,0.00,WUHU216DAVISVP2,2013-02-19 08:00:00,
2013-02-19 03:05:00,18.8,8.0,30.16,SSW,192,0.0,0.0,62,0.00,,,0.00,WUHU216DAVISVP2,2013-02-19 08:05:00,
2013-02-19 03:10:00,18.6,7.8,30.15,SSW,192,0.0,0.0,62,0.00,,,0.00,WUHU216DAVISVP2,2013-02-19 08:10:00,
2013-02-19 03:15:00,18.3,6.0,30.15,SSW,192,0.0,0.0,58,0.00,,,0.00,WUHU216DAVISVP2,2013-02-19 08:15:00,
2013-02-19 03:20:00,18.1,6.6,30.15,SSW,192,0.0,0.0,60,0.00,,,0.00,WUHU216DAVISVP2,2013-02-19 08:20:00,
2013-02-19 03:25:00,17.9,6.4,30.15,SSW,192,0.0,0.0,60,0.00,,,0.00,WUHU216DAVISVP2,2013-02-19 08:25:00,
2013-02-19 03:30:00,17.8,6.7,30.15,SSW,192,0.0,0.0,61,0.00,,,0.00,WUHU216DAVISVP2,2013-02-19 08:30:00,
2013-02-19 03:35:00,17.7,7.3,30.14,SSW,192,0.0,0.0,63,0.00,,,0.00,WUHU216DAVISVP2,2013-02-19 08:35:00,
2013-02-19 03:40:00,17.9,7.8,30.15,SSW,192,0.0,0.0,64,0.00,,,0.00,WUHU216DAVISVP2,2013-02-19 08:40:00,
2013-02-19 03:45:00,18.2,8.1,30.14,SSW,192,0.0,0.0,64,0.00,,,0.00,WUHU216DAVISVP2,2013-02-19 08:45:00,
2013-02-19 03:50:00,18.5,9.1,30.15,SSW,192,0.0,0.0,66,0.00,,,0.00,WUHU216DAVISVP2,2013-02-19 08:50:00,
2013-02-19 03:55:00,18.7,8.6,30.14,SSW,192,0.0,0.0,64,0.00,,,0.00,WUHU216DAVISVP2,2013-02-19 08:55:00,
2013-02-19 04:00:00,18.9,9.5,30.14,SSW,192,0.0,0.0,66,0.00,,,0.00,WUHU216DAVISVP2,2013-02-19 09:00:00,
2013-02-19 04:05:00,19.1,9.0,30.14,SSW,192,0.0,0.0,64,0.00,,,0.00,WUHU216DAVISVP2,2013-02-19 09:05:00,
2013-02-19 04:10:00,19.1,8.6,30.14,SSW,192,0.0,0.0,63,0.00,,,0.00,WUHU216DAVISVP2,2013-02-19 09:10:00,
2013-02-19 04:15:00,19.0,8.9,30.13,SSW,192,0.0,0.0,64,0.00,,,0.00,WUHU216DAVISVP2,2013-02-19 09:15:00,
2013-02-19 04:20:00,18.9,9.1,30.13,SSW,192,0.0,0.0,65,0.00,,,0.00,WUHU216DAVISVP2,2013-02-19 09:20:00,
2013-02-19 04:25:00,18.8,8.7,30.12,SSW,192,0.0,0.0,64,0.00,,,0.00,WUHU216DAVISVP2,2013-02-19 09:25:00,
2013-02-19 04:30:00,18.7,9.3,30.11,SSW,192,0.0,0.0,66,0.00,,,0.00,WUHU216DAVISVP2,2013-02-19 09:30:00,
2013-02-19 04:36:00,18.8,10.0,30.11,SSW,192,0.0,0.0,68,0.00,,,0.00,WUHU216DAVISVP2,2013-02-19 09:36:00,
2013-02-19 04:41:00,18.9,10.5,30.12,SSW,192,1.3,2.0,69,0.00,,,0.00,WUHU216DAVISVP2,2013-02-19 09:41:00,
2013-02-19 04:46:00,19.1,11.3,30.12,SSW,192,1.0,2.0,71,0.00,,,0.00,WUHU216DAVISVP2,2013-02-19 09:46:00,
2013-02-19 04:51:00,19.3,11.2,30.12,SSW,192,0.0,2.0,70,0.00,,,0.00,WUHU216DAVISVP2,2013-02-19 09:51:00,
2013-02-19 04:56:00,19.6,11.1,30.12,SSW,192,0.0,2.0,69,0.00,,,0.00,WUHU216DAVISVP2,2013-02-19 09:56:00,
2013-02-19 05:01:00,19.9,11.4,30.12,SSW,192,0.0,2.0,69,0.00,,,0.00,WUHU216DAVISVP2,2013-02-19 10:01:00,
2013-02-19 05:06:00,20.1,11.3,30.12,SSW,192,0.0,0.0,68,0.00,,,0.00,WUHU216DAVISVP2,2013-02-19 10:06:00,
2013-02-19 05:11:00,20.2,11.0,30.12,SSW,192,0.0,0.0,67,0.00,,,0.00,WUHU216DAVISVP2,2013-02-19 10:11:00,
2013-02-19 05:16:00,20.5,11.3,30.12,SSW,192,0.0,0.0,67,0.00,,,0.00,WUHU216DAVISVP2,2013-02-19 10:16:00,
2013-02-19 05:21:00,20.7,12.2,30.12,SSW,192,0.0,0.0,69,0.00,,,0.00,WUHU216DAVISVP2,2013-02-19 10:21:00,
2013-02-19 05:26:00,20.9,11.4,30.12,SSW,192,0.0,0.0,66,0.00,,,0.00,WUHU216DAVISVP2,2013-02-19 10:26:00,
2013-02-19 05:31:00,21.1,11.2,30.12,SSW,192,0.0,0.0,65,0.00,,,0.00,WUHU216DAVISVP2,2013-02-19 10:31:00,
2013-02-19 05:36:00,21.2,10.6,30.11,SSW,192,0.0,0.0,63,0.00,,,0.00,WUHU216DAVISVP2,2013-02-19 10:36:00,
2013-02-19 05:41:00,21.2,10.6,30.12,SSW,192,0.0,0.0,63,0.00,,,0.00,WUHU216DAVISVP2,2013-02-19 10:41:00,
2013-02-19 05:46:00,21.3,10.7,30.11,SSW,192,0.0,0.0,63,0.00,,,0.00,WUHU216DAVISVP2,2013-02-19 10:46:00,
2013-02-19 05:51:00,21.5,10.9,30.11,SSW,192,0.0,0.0,63,0.00,,,0.00,WUHU216DAVISVP2,2013-02-19 10:51:00,
2013-02-19 05:56:00,21.7,11.4,30.11,SSW,192,0.0,0.0,64,0.00,,,0.00,WUHU216DAVISVP2,2013-02-19 10:56:00,
2013-02-19 06:01:00,21.8,12.2,30.11,SSW,192,0.0,0.0,66,0.00,,,0.00,WUHU216DAVISVP2,2013-02-19 11:01:00,
2013-02-19 06:06:00,21.9,12.0,30.12,SSW,192,0.0,0.0,65,0.00,,,0.00,WUHU216DAVISVP2,2013-02-19 11:06:00,
2013-02-19 06:11:00,22.0,11.4,30.12,SSW,192,0.0,0.0,63,0.00,,,0.00,WUHU216DAVISVP2,2013-02-19 11:11:00,
2013-02-19 06:16:00,21.9,11.3,30.12,SSW,192,0.0,0.0,63,0.00,,,0.00,WUHU216DAVISVP2,2013-02-19 11:16:00,
2013-02-19 06:21:00,21.8,11.8,30.12,SSW,192,0.0,0.0,65,0.00,,,0.00,WUHU216DAVISVP2,2013-02-19 11:21:00,
2013-02-19 06:26:00,21.7,12.1,30.12,SSW,192,0.0,0.0,66,0.00,,,0.00,WUHU216DAVISVP2,2013-02-19 11:26:00,
2013-02-19 06:31:00,21.6,12.0,30.11,SSW,192,0.0,0.0,66,0.00,,,0.00,WUHU216DAVISVP2,2013-02-19 11:31:00,
2013-02-19 06:36:00,21.5,12.0,30.12,SSW,192,0.0,0.0,66,0.00,,,0.00,WUHU216DAVISVP2,2013-02-19 11:36:00,
2013-02-19 06:41:00,21.5,12.0,30.11,SSW,192,0.0,0.0,66,0.00,,,0.00,WUHU216DAVISVP2,2013-02-19 11:41:00,
2013-02-19 06:46:00,21.6,11.3,30.11,SSW,192,0.0,0.0,64,0.00,,,0.00,WUHU216DAVISVP2,2013-02-19 11:46:00,
2013-02-19 06:51:00,21.7,12.1,30.11,SSW,192,0.0,0.0,66,0.00,,,0.00,WUHU216DAVISVP2,2013-02-19 11:51:00,
2013-02-19 06:56:00,21.7,12.5,30.11,SSW,192,0.0,0.0,67,0.00,,,0.00,WUHU216DAVISVP2,2013-02-19 11:56:00,
2013-02-19 07:01:00,21.8,12.2,30.11,SSW,192,0.0,0.0,66,0.00,,,0.00,WUHU216DAVISVP2,2013-02-19 12:01:00,
2013-02-19 07:06:00,21.9,11.9,30.10,SSW,192,0.0,0.0,65,0.00,,,0.00,WUHU216DAVISVP2,2013-02-19 12:06:00,
2013-02-19 07:11:00,22.0,12.1,30.10,SSW,192,0.0,0.0,65,0.00,,,0.00,WUHU216DAVISVP2,2013-02-19 12:11:00,
2013-02-19 07:16:00,22.1,12.5,30.10,SSW,192,0.0,0.0,66,0.00,,,0.00,WUHU216DAVISVP2,2013-02-19 12:16:00,
2013-02-19 07:21:00,22.3,12.3,30.09,SSW,192,0.0,0.0,65,0.00,,,0.00,WUHU216DAVISVP2,2013-02-19 12:21:00,
2013-02-19 07:26:00,22.4,12.1,30.09,SSW,192,0.0,0.0,64,0.00,,,0.00,WUHU216DAVISVP2,2013-02-19 12:26:00,
2013-02-19 07:31:00,22.5,12.5,30.09,SSW,192,0.0,0.0,65,0.00,,,0.00,WUHU216DAVISVP2,2013-02-19 12:31:00,
2013-02-19 07:36:00,22.6,12.3,30.09,SSW,192,0.0,0.0,64,0.00,,,0.00,WUHU216DAVISVP2,2013-02-19 12:36:00,
2013-02-19 07:41:00,22.7,12.0,30.09,SSW,192,0.0,0.0,63,0.00,,,0.00,WUHU216DAVISVP2,2013-02-19 12:41:00,
2013-02-19 07:46:00,22.9,11.9,30.09,SSW,192,0.0,0.0,62,0.00,,,0.00,WUHU216DAVISVP2,2013-02-19 12:46:00,
2013-02-19 07:51:00,23.1,11.3,30.09,SSW,192,0.0,0.0,60,0.00,,,0.00,WUHU216DAVISVP2,2013-02-19 12:51:00,
2013-02-19 07:56:00,23.4,11.6,30.08,SSW,192,0.0,0.0,60,0.00,,,0.00,WUHU216DAVISVP2,2013-02-19 12:56:00,
2013-02-19 08:01:00,23.8,12.3,30.09,SSW,192,0.0,0.0,61,0.00,,,0.00,WUHU216DAVISVP2,2013-02-19 13:01:00,
2013-02-19 08:07:00,24.2,12.3,30.08,SSW,192,0.0,0.0,60,0.00,,,0.00,WUHU216DAVISVP2,2013-02-19 13:07:00,
2013-02-19 08:12:00,24.5,11.4,30.09,SSW,192,0.0,0.0,57,0.00,,,0.00,WUHU216DAVISVP2,2013-02-19 13:12:00,
2013-02-19 08:17:00,24.8,11.3,30.09,SSW,192,0.0,0.0,56,0.00,,,0.00,WUHU216DAVISVP2,2013-02-19 13:17:00,
2013-02-19 08:22:00,25.4,11.9,30.09,SSW,192,0.0,0.0,56,0.00,,,0.00,WUHU216DAVISVP2,2013-02-19 13:22:00,
2013-02-19 08:27:00,26.1,11.3,30.08,SSW,192,0.0,0.0,53,0.00,,,0.00,WUHU216DAVISVP2,2013-02-19 13:27:00,
2013-02-19 08:32:00,26.5,11.6,30.09,SSW,192,0.0,0.0,53,0.00,,,0.00,WUHU216DAVISVP2,2013-02-19 13:32:00,
2013-02-19 08:37:00,26.9,11.6,30.08,SSW,192,0.0,0.0,52,0.00,,,0.00,WUHU216DAVISVP2,2013-02-19 13:37:00,
2013-02-19 08:42:00,27.3,12.4,30.08,SSW,192,0.0,0.0,53,0.00,,,0.00,WUHU216DAVISVP2,2013-02-19 13:42:00,
2013-02-19 08:47:00,27.8,12.4,30.08,SSW,192,0.0,0.0,52,0.00,,,0.00,WUHU216DAVISVP2,2013-02-19 13:47:00,
2013-02-19 08:52:00,28.0,12.1,30.08,SSW,192,0.0,0.0,51,0.00,,,0.00,WUHU216DAVISVP2,2013-02-19 13:52:00,
2013-02-19 08:57:00,28.4,12.6,30.08,SSW,192,0.0,0.0,51,0.00,,,0.00,WUHU216DAVISVP2,2013-02-19 13:57:00,
2013-02-19 09:02:00,28.8,12.9,30.08,SSW,192,0.0,0.0,51,0.00,,,0.00,WUHU216DAVISVP2,2013-02-19 14:02:00,
2013-02-19 09:07:00,29.3,12.9,30.07,SSW,192,0.0,1.0,50,0.00,,,0.00,WUHU216DAVISVP2,2013-02-19 14:07:00,
2013-02-19 09:12:00,29.8,12.9,30.07,SSW,192,0.0,1.0,49,0.00,,,0.00,WUHU216DAVISVP2,2013-02-19 14:12:00,
2013-02-19 09:17:00,30.2,13.2,30.07,SSW,192,0.0,1.0,49,0.00,,,0.00,WUHU216DAVISVP2,2013-02-19 14:17:00,
2013-02-19 09:22:00,30.5,13.5,30.07,SSW,192,3.0,3.0,49,0.00,,,0.00,WUHU216DAVISVP2,2013-02-19 14:22:00,
2013-02-19 09:27:00,30.8,13.3,30.07,SSW,192,1.0,3.0,48,0.00,,,0.00,WUHU216DAVISVP2,2013-02-19 14:27:00,
2013-02-19 09:32:00,31.2,13.3,30.07,SSW,192,0.0,3.0,47,0.00,,,0.00,WUHU216DAVISVP2,2013-02-19 14:32:00,
2013-02-19 09:37:00,31.8,14.2,30.07,South,187,0.0,4.0,48,0.00,,,0.00,WUHU216DAVISVP2,2013-02-19 14:37:00,
2013-02-19 09:42:00,32.3,13.7,30.07,South,187,1.0,4.0,46,0.00,,,0.00,WUHU216DAVISVP2,2013-02-19 14:42:00,
2013-02-19 09:47:00,32.9,14.2,30.07,South,187,0.0,4.0,46,0.00,,,0.00,WUHU216DAVISVP2,2013-02-19 14:47:00,
2013-02-19 09:52:00,33.7,13.9,30.07,South,184,2.0,4.0,44,0.00,,,0.00,WUHU216DAVISVP2,2013-02-19 14:52:00,
2013-02-19 09:57:00,34.2,14.5,30.07,South,184,1.1,4.0,44,0.00,,,0.00,WUHU216DAVISVP2,2013-02-19 14:57:00,
2013-02-19 10:02:00,34.3,14.1,30.06,South,184,3.0,5.0,43,0.00,,,0.00,WUHU216DAVISVP2,2013-02-19 15:02:00,
2013-02-19 10:07:00,34.6,14.2,30.06,South,171,1.8,5.0,43,0.00,,,0.00,WUHU216DAVISVP2,2013-02-19 15:07:00,
2013-02-19 10:12:00,35.0,15.1,30.06,SSE,152,2.0,7.0,44,0.00,,,0.00,WUHU216DAVISVP2,2013-02-19 15:12:00,
2013-02-19 10:17:00,35.2,15.3,30.05,South,175,2.1,7.0,44,0.00,,,0.00,WUHU216DAVISVP2,2013-02-19 15:17:00,
2013-02-19 10:22:00,35.5,15.0,30.05,South,186,1.0,7.0,43,0.00,,,0.00,WUHU216DAVISVP2,2013-02-19 15:22:00,
2013-02-19 10:27:00,36.1,15.6,30.05,South,184,2.0,4.0,43,0.00,,,0.00,WUHU216DAVISVP2,2013-02-19 15:27:00,
2013-02-19 10:32:00,36.4,15.5,30.05,South,176,2.2,5.0,42,0.00,,,0.00,WUHU216DAVISVP2,2013-02-19 15:32:00,
2013-02-19 10:37:00,36.7,16.8,30.05,South,173,1.3,5.0,44,0.00,,,0.00,WUHU216DAVISVP2,2013-02-19 15:37:00,
2013-02-19 10:42:00,37.0,17.1,30.04,SE,128,3.0,6.0,44,0.00,,,0.00,WUHU216DAVISVP2,2013-02-19 15:42:00,
2013-02-19 10:47:00,37.3,17.2,30.04,SE,135,3.1,7.0,44,0.00,,,0.00,WUHU216DAVISVP2,2013-02-19 15:47:00,
2013-02-19 10:52:00,37.5,18.5,30.04,South,171,2.0,7.0,46,0.00,,,0.00,WUHU216DAVISVP2,2013-02-19 15:52:00,
2013-02-19 10:57:00,37.5,18.5,30.04,SSE,160,2.0,7.0,46,0.00,,,0.00,WUHU216DAVISVP2,2013-02-19 15:57:00,
2013-02-19 11:02:00,37.6,18.0,30.04,SSE,168,2.4,7.0,45,0.00,,,0.00,WUHU216DAVISVP2,2013-02-19 16:02:00,
2013-02-19 11:07:00,37.8,18.7,30.04,SE,144,2.4,6.0,46,0.00,,,0.00,WUHU216DAVISVP2,2013-02-19 16:07:00,
2013-02-19 11:12:00,38.1,19.0,30.04,SSE,165,2.5,8.0,46,0.00,,,0.00,WUHU216DAVISVP2,2013-02-19 16:12:00,
2013-02-19 11:17:00,38.3,19.7,30.04,SE,146,4.0,8.0,47,0.00,,,0.00,WUHU216DAVISVP2,2013-02-19 16:17:00,
2013-02-19 11:22:00,38.4,20.3,30.03,SE,140,3.0,8.0,48,0.00,,,0.00,WUHU216DAVISVP2,2013-02-19 16:22:00,
2013-02-19 11:27:00,38.6,20.5,30.02,SE,136,3.6,9.0,48,0.00,,,0.00,WUHU216DAVISVP2,2013-02-19 16:27:00,
2013-02-19 11:32:00,38.6,21.0,30.02,SE,141,2.5,9.0,49,0.00,,,0.00,WUHU216DAVISVP2,2013-02-19 16:32:00,
2013-02-19 11:37:00,38.8,21.2,30.01,SSE,152,3.0,9.0,49,0.00,,,0.00,WUHU216DAVISVP2,2013-02-19 16:37:00,
2013-02-19 11:42:00,39.1,22.0,30.01,SE,129,6.0,8.0,50,0.00,,,0.00,WUHU216DAVISVP2,2013-02-19 16:42:00,
2013-02-19 11:47:00,39.5,22.3,30.00,SE,124,4.3,9.0,50,0.00,,,0.00,WUHU216DAVISVP2,2013-02-19 16:47:00,
2013-02-19 11:52:00,39.9,22.7,30.00,SSE,167,4.0,9.0,50,0.00,,,0.00,WUHU216DAVISVP2,2013-02-19 16:52:00,
2013-02-19 11:57:00,40.0,23.8,29.99,ESE,118,3.0,9.0,52,0.00,,,0.00,WUHU216DAVISVP2,2013-02-19 16:57:00,
2013-02-19 12:02:00,40.3,24.5,29.99,SSE,161,3.0,9.0,53,0.00,,,0.00,WUHU216DAVISVP2,2013-02-19 17:02:00,
2013-02-19 12:07:00,40.2,24.4,29.98,ESE,116,8.0,10.0,53,0.00,,,0.00,WUHU216DAVISVP2,2013-02-19 17:07:00,
2013-02-19 12:12:00,40.4,25.1,29.98,SE,130,1.5,10.0,54,0.00,,,0.00,WUHU216DAVISVP2,2013-02-19 17:12:00,
2013-02-19 12:17:00,40.6,25.3,29.98,SE,141,3.5,10.0,54,0.00,,,0.00,WUHU216DAVISVP2,2013-02-19 17:17:00,
2013-02-19 12:22:00,40.8,25.9,29.98,SSE,155,3.0,10.0,55,0.00,,,0.00,WUHU216DAVISVP2,2013-02-19 17:22:00,
2013-02-19 12:27:00,40.9,26.0,29.98,SE,141,3.0,11.0,55,0.00,,,0.00,WUHU216DAVISVP2,2013-02-19 17:27:00,
2013-02-19 12:32:00,40.9,25.5,29.97,SSE,166,2.3,11.0,54,0.00,,,0.00,WUHU216DAVISVP2,2013-02-19 17:32:00,
2013-02-19 12:37:00,41.0,25.6,29.96,SE,133,3.0,11.0,54,0.00,,,0.00,WUHU216DAVISVP2,2013-02-19 17:37:00,
2013-02-19 12:42:00,41.3,26.4,29.96,SE,134,3.0,7.0,55,0.00,,,0.00,WUHU216DAVISVP2,2013-02-19 17:42:00,
2013-02-19 12:47:00,41.4,26.0,29.96,SSE,164,2.9,7.0,54,0.00,,,0.00,WUHU216DAVISVP2,2013-02-19 17:47:00,
2013-02-19 12:52:00,41.7,26.7,29.95,South,171,3.1,7.0,55,0.00,,,0.00,WUHU216DAVISVP2,2013-02-19 17:52:00,
2013-02-19 12:57:00,42.1,26.2,29.94,ESE,115,3.0,7.0,53,0.00,,,0.00,WUHU216DAVISVP2,2013-02-19 17:57:00,
2013-02-19 13:02:00,42.4,26.5,29.94,SSE,159,4.0,10.0,53,0.00,,,0.00,WUHU216DAVISVP2,2013-02-19 18:02:00,
2013-02-19 13:07:00,42.5,26.6,29.94,SE,134,5.0,12.0,53,0.00,,,0.00,WUHU216DAVISVP2,2013-02-19 18:07:00,
2013-02-19 13:12:00,42.4,26.5,29.94,SE,130,5.0,12.0,53,0.00,,,0.00,WUHU216DAVISVP2,2013-02-19 18:12:00,
2013-02-19 13:17:00,42.5,27.0,29.94,SSE,148,2.0,12.0,54,0.00,,,0.00,WUHU216DAVISVP2,2013-02-19 18:17:00,
2013-02-19 13:23:00,42.4,26.5,29.93,SSE,153,4.0,12.0,53,0.00,,,0.00,WUHU216DAVISVP2,2013-02-19 18:23:00,
2013-02-19 13:28:00,42.5,27.0,29.94,SSE,165,1.3,8.0,54,0.00,,,0.00,WUHU216DAVISVP2,2013-02-19 18:28:00,
2013-02-19 13:33:00,42.5,27.9,29.93,SSE,162,2.7,7.0,56,0.00,,,0.00,WUHU216DAVISVP2,2013-02-19 18:33:00,
2013-02-19 13:38:00,42.6,28.0,29.93,SSE,156,2.0,6.0,56,0.00,,,0.00,WUHU216DAVISVP2,2013-02-19 18:38:00,
2013-02-19 13:43:00,42.8,27.8,29.92,SE,128,2.7,8.0,55,0.00,,,0.00,WUHU216DAVISVP2,2013-02-19 18:43:00,
2013-02-19 13:48:00,43.0,28.4,29.93,SSE,153,1.7,8.0,56,0.00,,,0.00,WUHU216DAVISVP2,2013-02-19 18:48:00,
2013-02-19 13:53:00,43.0,28.4,29.92,SE,143,1.7,8.0,56,0.00,,,0.00,WUHU216DAVISVP2,2013-02-19 18:53:00,
2013-02-19 13:58:00,43.2,28.6,29.92,SE,140,1.2,8.0,56,0.00,,,0.00,WUHU216DAVISVP2,2013-02-19 18:58:00,
2013-02-19 14:03:00,43.3,28.7,29.91,ESE,118,2.0,7.0,56,0.00,,,0.00,WUHU216DAVISVP2,2013-02-19 19:03:00,
2013-02-19 14:08:00,43.4,28.8,29.90,ESE,117,1.0,5.0,56,0.00,,,0.00,WUHU216DAVISVP2,2013-02-19 19:08:00,
2013-02-19 14:13:00,43.6,29.0,29.90,ESE,117,3.3,7.0,56,0.00,,,0.00,WUHU216DAVISVP2,2013-02-19 19:13:00,
2013-02-19 14:18:00,43.7,29.1,29.90,SE,134,4.0,7.0,56,0.00,,,0.00,WUHU216DAVISVP2,2013-02-19 19:18:00,
2013-02-19 14:23:00,43.8,29.2,29.90,ESE,114,2.0,7.0,56,0.00,,,0.00,WUHU216DAVISVP2,2013-02-19 19:23:00,
2013-02-19 14:28:00,43.8,29.2,29.89,ESE,114,1.3,7.0,56,0.00,,,0.00,WUHU216DAVISVP2,2013-02-19 19:28:00,
2013-02-19 14:33:00,43.8,29.2,29.89,ESE,106,2.6,6.0,56,0.00,,,0.00,WUHU216DAVISVP2,2013-02-19 19:33:00,
2013-02-19 14:38:00,43.8,29.2,29.88,ESE,103,4.0,6.0,56,0.00,,,0.00,WUHU216DAVISVP2,2013-02-19 19:38:00,
2013-02-19 14:43:00,43.7,29.1,29.87,ESE,109,1.7,6.0,56,0.00,,,0.00,WUHU216DAVISVP2,2013-02-19 19:43:00,
2013-02-19 14:48:00,43.7,29.5,29.88,ESE,109,1.3,6.0,57,0.00,,,0.00,WUHU216DAVISVP2,2013-02-19 19:48:00,
2013-02-19 14:53:00,43.7,29.5,29.87,ESE,120,2.4,5.0,57,0.00,,,0.00,WUHU216DAVISVP2,2013-02-19 19:53:00,
2013-02-19 14:58:00,43.8,30.0,29.86,ESE,115,3.0,5.0,58,0.00,,,0.00,WUHU216DAVISVP2,2013-02-19 19:58:00,
2013-02-19 15:03:00,43.8,30.0,29.86,ESE,113,5.0,7.0,58,0.00,,,0.00,WUHU216DAVISVP2,2013-02-19 20:03:00,
2013-02-19 15:08:00,44.0,30.2,29.86,SE,129,3.0,7.0,58,0.00,,,0.00,WUHU216DAVISVP2,2013-02-19 20:08:00,
2013-02-19 15:13:00,44.1,30.3,29.85,SE,126,1.6,7.0,58,0.00,,,0.00,WUHU216DAVISVP2,2013-02-19 20:13:00,
2013-02-19 15:18:00,44.2,30.4,29.85,ESE,111,3.3,7.0,58,0.00,,,0.00,WUHU216DAVISVP2,2013-02-19 20:18:00,
2013-02-19 15:23:00,44.3,30.9,29.85,ESE,114,3.0,7.0,59,0.00,,,0.00,WUHU216DAVISVP2,2013-02-19 20:23:00,
2013-02-19 15:28:00,44.4,31.0,29.84,SE,125,1.4,7.0,59,0.00,,,0.00,WUHU216DAVISVP2,2013-02-19 20:28:00,
2013-02-19 15:33:00,44.6,31.2,29.83,SE,130,2.9,7.0,59,0.00,,,0.00,WUHU216DAVISVP2,2013-02-19 20:33:00,
2013-02-19 15:38:00,44.6,31.2,29.83,ESE,105,4.0,7.0,59,0.00,,,0.00,WUHU216DAVISVP2,2013-02-19 20:38:00,
2013-02-19 15:43:00,44.7,31.3,29.83,ESE,106,2.4,7.0,59,0.00,,,0.00,WUHU216DAVISVP2,2013-02-19 20:43:00,
2013-02-19 15:48:00,44.6,31.2,29.82,ESE,116,3.3,7.0,59,0.00,,,0.00,WUHU216DAVISVP2,2013-02-19 20:48:00,
2013-02-19 15:53:00,44.6,31.6,29.82,SE,132,1.8,7.0,60,0.00,,,0.00,WUHU216DAVISVP2,2013-02-19 20:53:00,
2013-02-19 15:58:00,44.7,31.7,29.82,SE,134,1.8,7.0,60,0.00,,,0.00,WUHU216DAVISVP2,2013-02-19 20:58:00,
2013-02-19 16:03:00,44.7,31.7,29.82,SE,142,2.5,6.0,60,0.00,,,0.00,WUHU216DAVISVP2,2013-02-19 21:03:00,
2013-02-19 16:08:00,44.8,31.8,29.81,ESE,111,3.1,9.0,60,0.00,,,0.00,WUHU216DAVISVP2,2013-02-19 21:08:00,
2013-02-19 16:13:00,44.9,31.9,29.81,SE,134,3.1,9.0,60,0.00,,,0.00,WUHU216DAVISVP2,2013-02-19 21:13:00,
2013-02-19 16:18:00,45.0,32.0,29.80,SSE,148,4.0,9.0,60,0.00,,,0.00,WUHU216DAVISVP2,2013-02-19 21:18:00,
2013-02-19 16:23:00,45.1,32.1,29.80,SSE,160,5.0,9.0,60,0.00,,,0.00,WUHU216DAVISVP2,2013-02-19 21:23:00,
2013-02-19 16:28:00,45.1,32.5,29.80,SE,132,4.0,9.0,61,0.00,,,0.00,WUHU216DAVISVP2,2013-02-19 21:28:00,
2013-02-19 16:33:00,45.1,32.9,29.80,SE,144,10.0,10.0,62,0.00,,,0.00,WUHU216DAVISVP2,2013-02-19 21:33:00,
2013-02-19 16:38:00,45.0,33.2,29.81,South,170,4.7,16.0,63,0.00,,,0.00,WUHU216DAVISVP2,2013-02-19 21:38:00,
2013-02-19 16:43:00,44.8,33.5,29.81,South,181,4.5,16.0,64,0.00,,,0.00,WUHU216DAVISVP2,2013-02-19 21:43:00,
2013-02-19 16:48:00,44.5,33.6,29.80,SSE,167,2.8,16.0,65,0.00,,,0.00,WUHU216DAVISVP2,2013-02-19 21:48:00,
2013-02-19 16:53:00,44.4,34.2,29.80,SSE,163,4.4,16.0,67,0.00,,,0.00,WUHU216DAVISVP2,2013-02-19 21:53:00,
2013-02-19 16:58:00,44.2,34.4,29.80,South,178,7.0,15.0,68,0.00,,,0.00,WUHU216DAVISVP2,2013-02-19 21:58:00,
2013-02-19 17:03:00,44.2,34.8,29.80,South,173,8.0,15.0,69,0.00,,,0.00,WUHU216DAVISVP2,2013-02-19 22:03:00,
2013-02-19 17:08:00,43.9,34.8,29.80,SSE,167,2.0,15.0,70,0.00,,,0.00,WUHU216DAVISVP2,2013-02-19 22:08:00,
2013-02-19 17:13:00,43.6,34.9,29.80,SSE,166,2.1,14.0,71,0.00,,,0.00,WUHU216DAVISVP2,2013-02-19 22:13:00,
2013-02-19 17:18:00,43.5,34.8,29.79,South,172,2.4,12.0,71,0.00,,,0.00,WUHU216DAVISVP2,2013-02-19 22:18:00,
2013-02-19 17:23:00,43.4,35.4,29.79,SSE,167,2.0,9.0,73,0.00,,,0.00,WUHU216DAVISVP2,2013-02-19 22:23:00,
2013-02-19 17:28:00,43.3,35.6,29.78,SE,136,5.0,9.0,74,0.00,,,0.00,WUHU216DAVISVP2,2013-02-19 22:28:00,
2013-02-19 17:33:00,43.2,35.5,29.78,SE,146,4.0,9.0,74,0.00,,,0.00,WUHU216DAVISVP2,2013-02-19 22:33:00,
2013-02-19 17:38:00,43.2,35.9,29.77,SE,145,2.9,8.0,75,0.00,,,0.00,WUHU216DAVISVP2,2013-02-19 22:38:00,
2013-02-19 17:43:00,43.1,36.1,29.77,SSE,154,1.6,7.0,76,0.00,,,0.00,WUHU216DAVISVP2,2013-02-19 22:43:00,
2013-02-19 17:48:00,42.9,36.2,29.77,SSE,149,1.8,7.0,77,0.00,,,0.00,WUHU216DAVISVP2,2013-02-19 22:48:00,
2013-02-19 17:53:00,42.8,36.4,29.77,SE,134,1.6,6.0,78,0.00,,,0.00,WUHU216DAVISVP2,2013-02-19 22:53:00,
2013-02-19 17:58:00,42.5,36.8,29.77,SE,134,2.0,6.0,80,0.00,,,0.00,WUHU216DAVISVP2,2013-02-19 22:58:00,
2013-02-19 18:03:00,42.2,36.8,29.76,SE,134,1.6,6.0,81,0.00,,,0.00,WUHU216DAVISVP2,2013-02-19 23:03:00,
2013-02-19 18:08:00,41.7,36.9,29.76,SE,146,2.7,6.0,83,0.00,,,0.00,WUHU216DAVISVP2,2013-02-19 23:08:00,
2013-02-19 18:13:00,41.4,36.9,29.76,SE,145,1.5,6.0,84,0.00,,,0.00,WUHU216DAVISVP2,2013-02-19 23:13:00,
2013-02-19 18:18:00,41.1,37.2,29.75,SE,142,1.6,6.0,86,0.00,,,0.00,WUHU216DAVISVP2,2013-02-19 23:18:00,
2013-02-19 18:23:00,40.9,37.3,29.75,SE,142,1.5,6.0,87,0.00,,,0.00,WUHU216DAVISVP2,2013-02-19 23:23:00,
2013-02-19 18:28:00,40.6,37.3,29.74,SE,140,2.4,5.0,88,0.00,,,0.00,WUHU216DAVISVP2,2013-02-19 23:28:00,
2013-02-19 18:34:00,40.4,37.4,29.74,SE,140,3.0,5.0,89,0.00,,,0.00,WUHU216DAVISVP2,2013-02-19 23:34:00,
2013-02-19 18:39:00,40.2,37.5,29.74,SE,138,1.0,5.0,90,0.01,,,0.01,WUHU216DAVISVP2,2013-02-19 23:39:00,
2013-02-19 18:44:00,40.1,37.4,29.74,SE,138,2.3,5.0,90,0.01,,,0.01,WUHU216DAVISVP2,2013-02-19 23:44:00,
2013-02-19 18:49:00,40.0,37.5,29.73,SE,138,1.0,4.0,91,0.01,,,0.01,WUHU216DAVISVP2,2013-02-19 23:49:00,
2013-02-19 18:54:00,39.9,37.4,29.73,SE,138,1.0,4.0,91,0.01,,,0.01,WUHU216DAVISVP2,2013-02-19 23:54:00,
2013-02-19 18:59:00,39.8,37.3,29.72,SE,137,2.0,4.0,91,0.02,,,0.02,WUHU216DAVISVP2,2013-02-19 23:59:00,
2013-02-19 19:04:00,39.8,37.6,29.71,SE,136,1.6,4.0,92,0.02,,,0.02,WUHU216DAVISVP2,2013-02-20 00:04:00,
2013-02-19 19:10:00,39.9,38.0,29.71,SE,141,1.4,5.0,93,0.02,,,0.02,WUHU216DAVISVP2,2013-02-20 00:10:00,
2013-02-19 19:15:00,39.9,38.0,29.71,SE,141,1.5,5.0,93,0.02,,,0.02,WUHU216DAVISVP2,2013-02-20 00:15:00,
2013-02-19 19:20:00,39.9,38.0,29.70,ESE,113,3.3,7.0,93,0.02,,,0.02,WUHU216DAVISVP2,2013-02-20 00:20:00,
2013-02-19 19:25:00,40.1,38.2,29.70,ESE,119,0.0,7.0,93,0.03,,,0.03,WUHU216DAVISVP2,2013-02-20 00:25:00,
2013-02-19 19:30:00,40.2,38.6,29.70,ESE,121,0.0,7.0,94,0.03,,,0.03,WUHU216DAVISVP2,2013-02-20 00:30:00,
2013-02-19 19:35:00,40.0,38.1,29.69,ESE,123,3.0,7.0,93,0.04,,,0.04,WUHU216DAVISVP2,2013-02-20 00:35:00,
2013-02-19 19:40:00,40.0,38.4,29.69,ESE,123,1.9,4.0,94,0.03,,,0.04,WUHU216DAVISVP2,2013-02-20 00:40:00,
2013-02-19 19:45:00,40.1,38.5,29.68,SE,132,2.2,5.0,94,0.03,,,0.04,WUHU216DAVISVP2,2013-02-20 00:45:00,
2013-02-19 19:50:00,40.4,39.0,29.67,ESE,115,3.0,10.0,95,0.05,,,0.06,WUHU216DAVISVP2,2013-02-20 00:50:00,
2013-02-19 19:55:00,40.5,39.1,29.67,ESE,115,7.0,10.0,95,0.06,,,0.07,WUHU216DAVISVP2,2013-02-20 00:55:00,
2013-02-19 20:00:00,40.5,39.1,29.67,ESE,109,2.0,10.0,95,0.06,,,0.08,WUHU216DAVISVP2,2013-02-20 01:00:00,
2013-02-19 20:05:00,40.6,39.2,29.67,ESE,109,0.0,10.0,95,0.07,,,0.09,WUHU216DAVISVP2,2013-02-20 01:05:00,
2013-02-19 20:10:00,40.6,39.3,29.66,ESE,113,1.0,7.0,95,0.08,,,0.10,WUHU216DAVISVP2,2013-02-20 01:10:00,
2013-02-19 20:15:00,40.4,39.1,29.66,ESE,113,0.0,4.0,95,0.08,,,0.10,WUHU216DAVISVP2,2013-02-20 01:15:00,
2013-02-19 20:20:00,40.3,38.9,29.65,ESE,113,1.5,4.0,95,0.09,,,0.11,WUHU216DAVISVP2,2013-02-20 01:20:00,
2013-02-19 20:25:00,40.4,39.0,29.65,ESE,112,0.0,4.0,95,0.08,,,0.11,WUHU216DAVISVP2,2013-02-20 01:25:00,
2013-02-19 20:30:00,39.6,38.0,29.65,ESE,113,0.0,3.0,94,0.08,,,0.11,WUHU216DAVISVP2,2013-02-20 01:30:00,
2013-02-19 20:35:00,39.4,38.0,29.64,NNE,32,4.0,4.0,95,0.08,,,0.12,WUHU216DAVISVP2,2013-02-20 01:35:00,
2013-02-19 20:40:00,39.6,38.2,29.65,NNE,30,4.0,5.0,95,0.08,,,0.12,WUHU216DAVISVP2,2013-02-20 01:40:00,
2013-02-19 20:45:00,39.9,38.8,29.64,NNE,28,1.0,6.0,96,0.07,,,0.12,WUHU216DAVISVP2,2013-02-20 01:45:00,
2013-02-19 20:50:00,40.0,38.6,29.64,NNE,28,1.3,6.0,95,0.07,,,0.13,WUHU216DAVISVP2,2013-02-20 01:50:00,
2013-02-19 20:55:00,40.1,39.0,29.65,NNE,28,2.0,6.0,96,0.07,,,0.14,WUHU216DAVISVP2,2013-02-20 01:55:00,
2013-02-19 21:00:00,40.2,39.1,29.64,NNE,28,0.0,5.0,96,0.06,,,0.14,WUHU216DAVISVP2,2013-02-20 02:00:00,
2013-02-19 21:05:00,40.0,38.6,29.63,NNE,28,0.0,3.0,95,0.05,,,0.14,WUHU216DAVISVP2,2013-02-20 02:05:00,
2013-02-19 21:10:00,39.7,38.4,29.62,NNE,28,0.0,2.0,95,0.05,,,0.15,WUHU216DAVISVP2,2013-02-20 02:10:00,
2013-02-19 21:15:00,39.3,38.0,29.62,NNE,28,0.0,0.0,95,0.06,,,0.16,WUHU216DAVISVP2,2013-02-20 02:15:00,
2013-02-19 21:20:00,39.1,37.8,29.61,NNE,28,0.0,0.0,95,0.06,,,0.17,WUHU216DAVISVP2,2013-02-20 02:20:00,
2013-02-19 21:25:00,38.8,37.5,29.61,NNE,28,0.0,0.0,95,0.06,,,0.17,WUHU216DAVISVP2,2013-02-20 02:25:00,
2013-02-19 21:30:00,38.5,37.1,29.60,NNE,28,0.0,0.0,95,0.07,,,0.18,WUHU216DAVISVP2,2013-02-20 02:30:00,
2013-02-19 21:35:00,38.2,36.9,29.61,NNE,28,0.0,0.0,95,0.06,,,0.18,WUHU216DAVISVP2,2013-02-20 02:35:00,
2013-02-19 21:40:00,37.8,36.5,29.61,NNE,28,0.0,0.0,95,0.06,,,0.18,WUHU216DAVISVP2,2013-02-20 02:40:00,
2013-02-19 21:45:00,37.7,36.4,29.62,NNE,28,0.0,0.0,95,0.06,,,0.18,WUHU216DAVISVP2,2013-02-20 02:45:00,
2013-02-19 21:50:00,37.7,36.6,29.60,NNE,28,0.0,0.0,96,0.05,,,0.18,WUHU216DAVISVP2,2013-02-20 02:50:00,
2013-02-19 21:55:00,37.6,36.3,29.61,NNE,28,0.0,0.0,95,0.04,,,0.18,WUHU216DAVISVP2,2013-02-20 02:55:00,
2013-02-19 22:00:00,37.5,36.2,29.60,NNE,28,0.0,0.0,95,0.04,,,0.18,WUHU216DAVISVP2,2013-02-20 03:00:00,
2013-02-19 22:05:00,37.6,36.5,29.60,NNE,28,0.0,0.0,96,0.04,,,0.18,WUHU216DAVISVP2,2013-02-20 03:05:00,
2013-02-19 22:10:00,37.4,36.3,29.60,NNE,28,0.0,0.0,96,0.03,,,0.18,WUHU216DAVISVP2,2013-02-20 03:10:00,
2013-02-19 22:15:00,37.3,36.2,29.59,NNE,28,0.0,0.0,96,0.02,,,0.18,WUHU216DAVISVP2,2013-02-20 03:15:00,
2013-02-19 22:20:00,37.3,36.2,29.59,NNE,28,0.0,0.0,96,0.02,,,0.19,WUHU216DAVISVP2,2013-02-20 03:20:00,
2013-02-19 22:25:00,37.3,36.2,29.59,NNE,28,0.0,0.0,96,0.01,,,0.19,WUHU216DAVISVP2,2013-02-20 03:25:00,
2013-02-19 22:30:00,37.2,36.1,29.60,NNE,28,0.0,0.0,96,0.01,,,0.19,WUHU216DAVISVP2,2013-02-20 03:30:00,
2013-02-19 22:35:00,36.9,35.6,29.60,NNE,28,0.0,0.0,95,0.01,,,0.19,WUHU216DAVISVP2,2013-02-20 03:35:00,
2013-02-19 22:40:00,36.8,35.7,29.59,NNE,28,0.0,0.0,96,0.02,,,0.20,WUHU216DAVISVP2,2013-02-20 03:40:00,
2013-02-19 22:45:00,37.0,35.9,29.58,NNE,28,0.0,0.0,96,0.02,,,0.20,WUHU216DAVISVP2,2013-02-20 03:45:00,
2013-02-19 22:50:00,37.3,36.2,29.57,NNE,28,0.0,0.0,96,0.02,,,0.20,WUHU216DAVISVP2,2013-02-20 03:50:00,
2013-02-19 22:55:00,37.6,36.8,29.57,NNE,28,0.0,0.0,97,0.02,,,0.20,WUHU216DAVISVP2,2013-02-20 03:55:00,
2013-02-19 23:00:00,37.0,35.9,29.57,NNE,28,0.0,0.0,96,0.02,,,0.20,WUHU216DAVISVP2,2013-02-20 04:00:00,
2013-02-19 23:06:00,36.6,35.5,29.57,NNE,28,0.0,0.0,96,0.02,,,0.20,WUHU216DAVISVP2,2013-02-20 04:06:00,
2013-02-19 23:11:00,36.4,35.3,29.56,NNE,28,0.0,0.0,96,0.02,,,0.20,WUHU216DAVISVP2,2013-02-20 04:11:00,
2013-02-19 23:16:00,36.3,35.2,29.57,NNE,28,0.0,0.0,96,0.02,,,0.20,WUHU216DAVISVP2,2013-02-20 04:16:00,
2013-02-19 23:21:00,36.0,34.9,29.56,NNE,28,0.0,0.0,96,0.01,,,0.20,WUHU216DAVISVP2,2013-02-20 04:21:00,
2013-02-19 23:26:00,36.0,34.9,29.57,NNE,28,0.0,0.0,96,0.01,,,0.20,WUHU216DAVISVP2,2013-02-20 04:26:00,
2013-02-19 23:31:00,36.0,34.9,29.57,NNE,28,0.0,0.0,96,0.01,,,0.20,WUHU216DAVISVP2,2013-02-20 04:31:00,
2013-02-19 23:36:00,36.0,34.9,29.57,NNE,28,0.0,0.0,96,0.01,,,0.20,WUHU216DAVISVP2,2013-02-20 04:36:00,
2013-02-19 23:41:00,36.2,35.1,29.57,NNE,28,0.0,0.0,96,0.00,,,0.20,WUHU216DAVISVP2,2013-02-20 04:41:00,
2013-02-19 23:46:00,36.1,35.0,29.57,NNE,28,0.0,0.0,96,0.00,,,0.20,WUHU216DAVISVP2,2013-02-20 04:46:00,
2013-02-19 23:51:00,36.0,34.9,29.56,NNE,28,0.0,0.0,96,0.00,,,0.20,WUHU216DAVISVP2,2013-02-20 04:51:00,
2013-02-19 23:56:00,36.1,35.0,29.56,NNE,28,0.0,0.0,96,0.00,,,0.20,WUHU216DAVISVP2,2013-02-20 04:56:00,